Time,TemperatureF,DewpointF,PressureIn,WindDirection,WindDirectionDegrees,WindSpeedMPH,WindSpeedGustMPH,Humidity,HourlyPrecipIn,Conditions,Clouds,dailyrainin,SoftwareType,DateUTC
2013-08-16 00:01:00,60.6,51.9,30.14,WNW,289,0.0,0.0,73,0.00,,,0.00,WeatherCatV1.15B25,2013-08-16 04:01:00,
2013-08-16 00:06:00,60.4,51.7,30.14,WNW,289,0.0,0.0,73,0.00,,,0.00,WeatherCatV1.15B25,2013-08-16 04:06:00,
2013-08-16 00:11:00,60.3,52.0,30.14,WNW,289,0.0,0.0,74,0.00,,,0.00,WeatherCatV1.15B25,2013-08-16 04:11:00,
2013-08-16 00:16:00,60.2,51.9,30.14,WNW,288,0.0,0.0,74,0.00,,,0.00,WeatherCatV1.15B25,2013-08-16 04:16:00,
2013-08-16 00:21:00,60.2,51.9,30.14,WNW,288,0.0,0.0,74,0.00,,,0.00,WeatherCatV1.15B25,2013-08-16 04:21:00,
2013-08-16 00:26:00,60.2,51.9,30.14,WNW,289,0.0,0.0,74,0.00,,,0.00,WeatherCatV1.15B25,2013-08-16 04:26:00,
2013-08-16 00:31:00,60.2,51.9,30.14,WNW,289,0.0,0.0,74,0.00,,,0.00,WeatherCatV1.15B25,2013-08-16 04:31:00,
2013-08-16 00:36:00,60.2,51.5,30.14,WNW,289,0.0,0.0,73,0.00,,,0.00,WeatherCatV1.15B25,2013-08-16 04:36:00,
2013-08-16 00:41:00,60.2,52.2,30.14,WNW,289,0.0,0.0,75,0.00,,,0.00,WeatherCatV1.15B25,2013-08-16 04:41:00,
2013-08-16 00:46:00,60.2,52.2,30.14,WNW,289,0.0,0.0,75,0.00,,,0.00,WeatherCatV1.15B25,2013-08-16 04:46:00,
2013-08-16 00:51:00,60.1,52.1,30.14,WNW,288,0.0,0.0,75,0.00,,,0.00,WeatherCatV1.15B25,2013-08-16 04:51:00,
2013-08-16 00:56:00,59.9,52.0,30.14,WNW,288,0.0,0.0,75,0.00,,,0.00,WeatherCatV1.15B25,2013-08-16 04:56:00,
2013-08-16 01:01:00,59.8,51.9,30.13,WNW,289,0.0,0.0,75,0.00,,,0.00,WeatherCatV1.15B25,2013-08-16 05:01:00,
2013-08-16 01:06:00,59.7,51.8,30.13,WNW,289,0.0,0.0,75,0.00,,,0.00,WeatherCatV1.15B25,2013-08-16 05:06:00,
2013-08-16 01:11:00,59.5,51.6,30.13,WNW,289,0.0,0.0,75,0.00,,,0.00,WeatherCatV1.15B25,2013-08-16 05:11:00,
2013-08-16 01:16:00,59.4,51.5,30.14,WNW,289,0.0,0.0,75,0.00,,,0.00,WeatherCatV1.15B25,2013-08-16 05:16:00,
2013-08-16 01:19:00,59.2,51.3,30.13,WNW,289,0.0,0.0,75,0.00,,,0.00,WeatherCatV1.15B25,2013-08-16 05:19:00,
2013-08-16 01:20:00,59.2,51.3,30.13,WNW,289,0.0,0.0,75,0.00,,,0.00,WeatherCatV1.15B25,2013-08-16 05:20:00,
2013-08-16 01:25:00,59.0,51.1,30.13,WNW,288,0.0,0.0,75,0.00,,,0.00,WeatherCatV1.15B25,2013-08-16 05:25:00,
2013-08-16 01:30:00,59.0,51.1,30.13,WNW,289,0.0,0.0,75,0.00,,,0.00,WeatherCatV1.15B25,2013-08-16 05:30:00,
2013-08-16 01:35:00,59.0,51.1,30.13,WNW,289,0.0,0.0,75,0.00,,,0.00,WeatherCatV1.15B25,2013-08-16 05:35:00,
2013-08-16 01:40:00,59.0,51.4,30.13,WNW,288,0.0,0.0,76,0.00,,,0.00,WeatherCatV1.15B25,2013-08-16 05:40:00,
2013-08-16 01:45:00,59.0,51.8,30.13,WNW,288,0.0,0.0,77,0.00,,,0.00,WeatherCatV1.15B25,2013-08-16 05:45:00,
2013-08-16 01:50:00,59.0,51.8,30.13,WNW,289,0.0,0.0,77,0.00,,,0.00,WeatherCatV1.15B25,2013-08-16 05:50:00,
2013-08-16 01:55:00,59.0,51.4,30.12,WNW,288,0.0,0.0,76,0.00,,,0.00,WeatherCatV1.15B25,2013-08-16 05:55:00,
2013-08-16 02:00:00,59.4,51.5,30.12,WNW,288,0.0,0.0,75,0.00,,,0.00,WeatherCatV1.15B25,2013-08-16 06:00:00,
2013-08-16 02:05:00,59.5,51.2,30.12,WNW,289,0.0,0.0,74,0.00,,,0.00,WeatherCatV1.15B25,2013-08-16 06:05:00,
2013-08-16 02:10:00,59.6,52.0,30.12,WNW,289,0.0,0.0,76,0.00,,,0.00,WeatherCatV1.15B25,2013-08-16 06:10:00,
2013-08-16 02:15:00,59.7,51.4,30.12,WNW,289,0.0,0.0,74,0.00,,,0.00,WeatherCatV1.15B25,2013-08-16 06:15:00,
2013-08-16 02:20:00,59.7,51.0,30.12,WNW,288,0.0,0.0,73,0.00,,,0.00,WeatherCatV1.15B25,2013-08-16 06:20:00,
2013-08-16 02:25:00,59.8,50.8,30.12,WNW,289,0.0,0.0,72,0.00,,,0.00,WeatherCatV1.15B25,2013-08-16 06:25:00,
2013-08-16 02:30:00,59.9,50.8,30.12,WNW,289,0.0,0.0,72,0.00,,,0.00,WeatherCatV1.15B25,2013-08-16 06:30:00,
2013-08-16 02:35:00,59.9,50.5,30.12,WNW,288,0.0,0.0,71,0.00,,,0.00,WeatherCatV1.15B25,2013-08-16 06:35:00,
2013-08-16 02:40:00,60.0,50.6,30.11,WNW,289,0.0,0.0,71,0.00,,,0.00,WeatherCatV1.15B25,2013-08-16 06:40:00,
2013-08-16 02:45:00,60.0,50.6,30.11,WNW,289,0.0,0.0,71,0.00,,,0.00,WeatherCatV1.15B25,2013-08-16 06:45:00,
2013-08-16 02:50:00,60.1,50.7,30.11,WNW,289,0.0,0.0,71,0.00,,,0.00,WeatherCatV1.15B25,2013-08-16 06:50:00,
2013-08-16 02:55:00,60.2,50.8,30.11,WNW,288,0.0,0.0,71,0.00,,,0.00,WeatherCatV1.15B25,2013-08-16 06:55:00,
2013-08-16 03:00:00,60.2,50.8,30.11,WNW,289,0.0,0.0,71,0.00,,,0.00,WeatherCatV1.15B25,2013-08-16 07:00:00,
2013-08-16 03:05:00,60.2,50.8,30.11,WNW,288,0.0,0.0,71,0.00,,,0.00,WeatherCatV1.15B25,2013-08-16 07:05:00,
2013-08-16 03:10:00,60.2,50.8,30.12,WNW,288,0.0,0.0,71,0.00,,,0.00,WeatherCatV1.15B25,2013-08-16 07:10:00,
2013-08-16 03:15:00,60.2,50.8,30.12,WNW,289,0.0,0.0,71,0.00,,,0.00,WeatherCatV1.15B25,2013-08-16 07:15:00,
2013-08-16 03:20:00,60.1,50.7,30.12,WNW,289,0.0,0.0,71,0.00,,,0.00,WeatherCatV1.15B25,2013-08-16 07:20:00,
2013-08-16 03:25:00,60.0,50.6,30.12,WNW,289,0.0,0.0,71,0.00,,,0.00,WeatherCatV1.15B25,2013-08-16 07:25:00,
2013-08-16 03:30:00,59.9,50.8,30.12,WNW,288,0.0,0.0,72,0.00,,,0.00,WeatherCatV1.15B25,2013-08-16 07:30:00,
2013-08-16 03:35:00,59.8,50.8,30.12,WNW,289,0.0,0.0,72,0.00,,,0.00,WeatherCatV1.15B25,2013-08-16 07:35:00,
2013-08-16 03:40:00,59.8,50.8,30.12,WNW,289,0.0,0.0,72,0.00,,,0.00,WeatherCatV1.15B25,2013-08-16 07:40:00,
2013-08-16 03:45:00,59.7,50.7,30.12,WNW,289,0.0,0.0,72,0.00,,,0.00,WeatherCatV1.15B25,2013-08-16 07:45:00,
2013-08-16 03:50:00,59.7,51.0,30.12,WNW,289,0.0,0.0,73,0.00,,,0.00,WeatherCatV1.15B25,2013-08-16 07:50:00,
2013-08-16 03:55:00,59.7,50.7,30.12,WNW,289,0.0,0.0,72,0.00,,,0.00,WeatherCatV1.15B25,2013-08-16 07:55:00,
2013-08-16 04:00:00,59.7,50.7,30.12,WNW,289,0.0,0.0,72,0.00,,,0.00,WeatherCatV1.15B25,2013-08-16 08:00:00,
2013-08-16 04:05:00,59.8,51.1,30.12,WNW,289,0.0,0.0,73,0.00,,,0.00,WeatherCatV1.15B25,2013-08-16 08:05:00,
2013-08-16 04:10:00,59.8,50.8,30.12,WNW,289,0.0,0.0,72,0.00,,,0.00,WeatherCatV1.15B25,2013-08-16 08:10:00,
2013-08-16 04:15:00,59.7,51.0,30.12,WNW,289,0.0,0.0,73,0.00,,,0.00,WeatherCatV1.15B25,2013-08-16 08:15:00,
2013-08-16 04:20:00,59.6,50.9,30.12,WNW,288,0.0,0.0,73,0.00,,,0.00,WeatherCatV1.15B25,2013-08-16 08:20:00,
2013-08-16 04:25:00,59.5,50.8,30.12,WNW,289,0.0,0.0,73,0.00,,,0.00,WeatherCatV1.15B25,2013-08-16 08:25:00,
2013-08-16 04:30:00,59.4,50.7,30.12,WNW,289,0.0,0.0,73,0.00,,,0.01,WeatherCatV1.15B25,2013-08-16 08:30:00,
2013-08-16 04:35:00,59.3,51.0,30.12,WNW,288,0.0,0.0,74,0.00,,,0.01,WeatherCatV1.15B25,2013-08-16 08:35:00,
2013-08-16 04:40:00,59.0,50.7,30.12,WNW,289,0.0,0.0,74,0.00,,,0.01,WeatherCatV1.15B25,2013-08-16 08:40:00,
2013-08-16 04:45:00,59.0,51.1,30.12,WNW,289,0.0,0.0,75,0.00,,,0.01,WeatherCatV1.15B25,2013-08-16 08:45:00,
2013-08-16 04:50:00,59.0,51.1,30.12,WNW,288,0.0,0.0,75,0.00,,,0.01,WeatherCatV1.15B25,2013-08-16 08:50:00,
2013-08-16 04:55:00,59.0,51.4,30.12,WNW,288,0.0,0.0,76,0.00,,,0.01,WeatherCatV1.15B25,2013-08-16 08:55:00,
2013-08-16 05:00:00,59.0,51.4,30.12,WNW,289,0.0,0.0,76,0.00,,,0.01,WeatherCatV1.15B25,2013-08-16 09:00:00,
2013-08-16 05:05:00,58.7,51.5,30.12,WNW,289,0.0,0.0,77,0.00,,,0.01,WeatherCatV1.15B25,2013-08-16 09:05:00,
2013-08-16 05:10:00,58.6,51.4,30.12,WNW,289,0.0,0.0,77,0.00,,,0.01,WeatherCatV1.15B25,2013-08-16 09:10:00,
2013-08-16 05:15:00,58.5,51.3,30.12,WNW,289,0.0,0.0,77,0.00,,,0.01,WeatherCatV1.15B25,2013-08-16 09:15:00,
2013-08-16 05:20:00,58.4,51.2,30.13,WNW,289,0.0,0.0,77,0.00,,,0.01,WeatherCatV1.15B25,2013-08-16 09:20:00,
2013-08-16 05:25:00,58.3,51.5,30.13,WNW,289,0.0,0.0,78,0.00,,,0.01,WeatherCatV1.15B25,2013-08-16 09:25:00,
2013-08-16 05:30:00,58.2,51.4,30.13,WNW,288,0.0,0.0,78,0.00,,,0.01,WeatherCatV1.15B25,2013-08-16 09:30:00,
2013-08-16 05:35:00,58.1,51.6,30.13,WNW,289,0.0,0.0,79,0.00,,,0.01,WeatherCatV1.15B25,2013-08-16 09:35:00,
2013-08-16 05:40:00,58.0,51.5,30.13,WNW,289,0.0,0.0,79,0.00,,,0.01,WeatherCatV1.15B25,2013-08-16 09:40:00,
2013-08-16 05:45:00,57.9,51.4,30.13,WNW,289,0.0,0.0,79,0.00,,,0.01,WeatherCatV1.15B25,2013-08-16 09:45:00,
2013-08-16 05:50:00,57.8,51.3,30.13,WNW,289,0.0,0.0,79,0.00,,,0.01,WeatherCatV1.15B25,2013-08-16 09:50:00,
2013-08-16 05:55:00,57.7,51.2,30.14,WNW,289,0.0,0.0,79,0.00,,,0.01,WeatherCatV1.15B25,2013-08-16 09:55:00,
2013-08-16 06:00:00,57.7,51.2,30.14,WNW,288,0.0,0.0,79,0.00,,,0.01,WeatherCatV1.15B25,2013-08-16 10:00:00,
2013-08-16 06:05:00,57.6,51.1,30.14,WNW,288,0.0,0.0,79,0.00,,,0.01,WeatherCatV1.15B25,2013-08-16 10:05:00,
2013-08-16 06:10:00,57.7,51.6,30.14,WNW,289,0.0,0.0,80,0.00,,,0.01,WeatherCatV1.15B25,2013-08-16 10:10:00,
2013-08-16 06:15:00,57.7,52.2,30.14,WNW,289,0.0,0.0,82,0.00,,,0.01,WeatherCatV1.15B25,2013-08-16 10:15:00,
2013-08-16 06:20:00,57.7,52.2,30.14,WNW,289,0.0,0.0,82,0.00,,,0.01,WeatherCatV1.15B25,2013-08-16 10:20:00,
2013-08-16 06:25:00,57.7,51.6,30.14,WNW,289,0.0,0.0,80,0.00,,,0.01,WeatherCatV1.15B25,2013-08-16 10:25:00,
2013-08-16 06:30:00,57.8,51.3,30.14,WNW,289,0.0,0.0,79,0.00,,,0.01,WeatherCatV1.15B25,2013-08-16 10:30:00,
2013-08-16 06:35:00,57.9,51.4,30.15,WNW,288,0.0,0.0,79,0.00,,,0.01,WeatherCatV1.15B25,2013-08-16 10:35:00,
2013-08-16 06:40:00,58.0,51.9,30.14,WNW,289,0.0,0.0,80,0.00,,,0.01,WeatherCatV1.15B25,2013-08-16 10:40:00,
2013-08-16 06:45:00,58.0,52.2,30.14,WNW,289,0.0,0.0,81,0.00,,,0.01,WeatherCatV1.15B25,2013-08-16 10:45:00,
2013-08-16 06:50:00,58.0,52.2,30.15,WNW,288,0.0,0.0,81,0.00,,,0.01,WeatherCatV1.15B25,2013-08-16 10:50:00,
2013-08-16 06:55:00,58.0,52.5,30.15,WNW,289,0.0,0.0,82,0.00,,,0.01,WeatherCatV1.15B25,2013-08-16 10:55:00,
2013-08-16 07:00:00,58.1,52.3,30.14,WNW,289,0.0,0.0,81,0.00,,,0.01,WeatherCatV1.15B25,2013-08-16 11:00:00,
2013-08-16 07:05:00,58.2,52.4,30.15,WNW,289,0.0,0.0,81,0.00,,,0.01,WeatherCatV1.15B25,2013-08-16 11:05:00,
2013-08-16 07:10:00,58.2,52.4,30.15,WNW,288,0.0,0.0,81,0.00,,,0.01,WeatherCatV1.15B25,2013-08-16 11:10:00,
2013-08-16 07:15:00,58.3,52.5,30.15,WNW,289,0.0,0.0,81,0.00,,,0.01,WeatherCatV1.15B25,2013-08-16 11:15:00,
2013-08-16 07:20:00,58.4,52.6,30.15,WNW,288,0.0,0.0,81,0.00,,,0.01,WeatherCatV1.15B25,2013-08-16 11:20:00,
2013-08-16 07:25:00,58.5,53.0,30.15,WNW,289,0.0,0.0,82,0.00,,,0.01,WeatherCatV1.15B25,2013-08-16 11:25:00,
2013-08-16 07:30:00,58.6,52.8,30.15,WNW,288,0.0,0.0,81,0.00,,,0.01,WeatherCatV1.15B25,2013-08-16 11:30:00,
2013-08-16 07:35:00,58.7,52.5,30.14,WNW,289,0.0,0.0,80,0.00,,,0.01,WeatherCatV1.15B25,2013-08-16 11:35:00,
2013-08-16 07:40:00,59.0,52.8,30.14,WNW,289,0.0,0.0,80,0.00,,,0.01,WeatherCatV1.15B25,2013-08-16 11:40:00,
2013-08-16 07:45:00,59.0,52.8,30.14,WNW,289,0.0,0.0,80,0.00,,,0.01,WeatherCatV1.15B25,2013-08-16 11:45:00,
2013-08-16 07:50:00,59.0,52.8,30.14,WNW,289,0.0,0.0,80,0.00,,,0.01,WeatherCatV1.15B25,2013-08-16 11:50:00,
2013-08-16 07:55:00,59.4,53.2,30.15,WNW,289,0.0,0.0,80,0.00,,,0.01,WeatherCatV1.15B25,2013-08-16 11:55:00,
2013-08-16 08:00:00,59.6,53.8,30.15,WNW,289,0.0,0.0,81,0.00,,,0.01,WeatherCatV1.15B25,2013-08-16 12:00:00,
2013-08-16 08:05:00,59.7,53.5,30.15,WNW,289,0.0,0.0,80,0.00,,,0.01,WeatherCatV1.15B25,2013-08-16 12:05:00,
2013-08-16 08:10:00,59.9,53.7,30.15,WNW,289,0.0,0.0,80,0.00,,,0.01,WeatherCatV1.15B25,2013-08-16 12:10:00,
2013-08-16 08:15:00,60.2,53.7,30.15,WNW,289,0.0,0.0,79,0.00,,,0.01,WeatherCatV1.15B25,2013-08-16 12:15:00,
2013-08-16 08:20:00,60.4,54.2,30.15,WNW,288,0.0,0.0,80,0.00,,,0.01,WeatherCatV1.15B25,2013-08-16 12:20:00,
2013-08-16 08:25:00,60.7,54.5,30.15,WNW,289,0.0,0.0,80,0.00,,,0.01,WeatherCatV1.15B25,2013-08-16 12:25:00,
2013-08-16 08:30:00,60.8,54.2,30.15,WNW,289,0.0,0.0,79,0.00,,,0.01,WeatherCatV1.15B25,2013-08-16 12:30:00,
2013-08-16 08:35:00,60.9,54.3,30.15,WNW,288,0.0,0.0,79,0.00,,,0.01,WeatherCatV1.15B25,2013-08-16 12:35:00,
2013-08-16 08:40:00,61.0,54.8,30.15,WNW,289,0.0,0.0,80,0.00,,,0.01,WeatherCatV1.15B25,2013-08-16 12:40:00,
2013-08-16 08:45:00,61.2,55.3,30.15,WNW,289,0.0,0.0,81,0.00,,,0.01,WeatherCatV1.15B25,2013-08-16 12:45:00,
2013-08-16 08:50:00,61.4,55.5,30.15,WNW,288,0.0,0.0,81,0.00,,,0.01,WeatherCatV1.15B25,2013-08-16 12:50:00,
2013-08-16 08:55:00,61.5,54.9,30.15,WNW,289,0.0,0.0,79,0.00,,,0.01,WeatherCatV1.15B25,2013-08-16 12:55:00,
2013-08-16 09:00:00,61.7,55.5,30.15,WNW,289,0.0,0.0,80,0.00,,,0.01,WeatherCatV1.15B25,2013-08-16 13:00:00,
2013-08-16 09:05:00,61.8,55.6,30.15,WNW,289,0.0,0.0,80,0.00,,,0.01,WeatherCatV1.15B25,2013-08-16 13:05:00,
2013-08-16 09:10:00,62.1,55.5,30.15,WNW,288,0.0,0.0,79,0.00,,,0.01,WeatherCatV1.15B25,2013-08-16 13:10:00,
2013-08-16 09:15:00,62.4,55.8,30.15,WNW,289,0.0,0.0,79,0.00,,,0.01,WeatherCatV1.15B25,2013-08-16 13:15:00,
2013-08-16 09:20:00,62.7,56.1,30.15,WNW,289,0.0,0.0,79,0.00,,,0.01,WeatherCatV1.15B25,2013-08-16 13:20:00,
2013-08-16 09:25:00,63.0,56.4,30.15,WNW,289,0.0,0.0,79,0.00,,,0.01,WeatherCatV1.15B25,2013-08-16 13:25:00,
2013-08-16 09:30:00,63.1,56.1,30.15,WNW,289,0.0,0.0,78,0.00,,,0.01,WeatherCatV1.15B25,2013-08-16 13:30:00,
2013-08-16 09:35:00,63.3,56.3,30.15,WNW,288,0.0,0.0,78,0.00,,,0.01,WeatherCatV1.15B25,2013-08-16 13:35:00,
2013-08-16 09:40:00,63.5,55.8,30.15,WNW,289,0.0,0.0,76,0.00,,,0.01,WeatherCatV1.15B25,2013-08-16 13:40:00,
2013-08-16 09:45:00,63.8,56.8,30.15,WNW,289,0.0,0.0,78,0.00,,,0.01,WeatherCatV1.15B25,2013-08-16 13:45:00,
2013-08-16 09:50:00,64.0,56.6,30.16,WNW,288,0.0,0.0,77,0.00,,,0.01,WeatherCatV1.15B25,2013-08-16 13:50:00,
2013-08-16 09:55:00,64.3,56.6,30.16,WNW,289,0.0,0.0,76,0.00,,,0.01,WeatherCatV1.15B25,2013-08-16 13:55:00,
2013-08-16 10:00:00,64.6,56.9,30.16,WNW,289,0.0,0.0,76,0.00,,,0.01,WeatherCatV1.15B25,2013-08-16 14:00:00,
2013-08-16 10:05:00,64.8,57.4,30.16,WNW,289,0.0,0.0,77,0.00,,,0.01,WeatherCatV1.15B25,2013-08-16 14:05:00,
2013-08-16 10:10:00,65.1,57.7,30.16,WNW,288,0.0,0.0,77,0.00,,,0.01,WeatherCatV1.15B25,2013-08-16 14:10:00,
2013-08-16 10:15:00,65.5,58.5,30.16,WNW,289,0.0,0.0,78,0.00,,,0.01,WeatherCatV1.15B25,2013-08-16 14:15:00,
2013-08-16 10:20:00,65.8,58.4,30.16,WNW,289,0.0,0.0,77,0.00,,,0.01,WeatherCatV1.15B25,2013-08-16 14:20:00,
2013-08-16 10:25:00,65.9,57.4,30.16,WNW,289,0.0,0.0,74,0.00,,,0.01,WeatherCatV1.15B25,2013-08-16 14:25:00,
2013-08-16 10:30:00,66.1,57.9,30.16,WNW,289,0.0,0.0,75,0.00,,,0.01,WeatherCatV1.15B25,2013-08-16 14:30:00,
2013-08-16 10:35:00,66.2,59.1,30.16,WNW,289,0.0,0.0,78,0.00,,,0.01,WeatherCatV1.15B25,2013-08-16 14:35:00,
2013-08-16 10:40:00,66.4,59.0,30.16,WNW,289,0.0,0.0,77,0.00,,,0.01,WeatherCatV1.15B25,2013-08-16 14:40:00,
2013-08-16 10:45:00,66.7,60.0,30.16,WNW,289,0.0,0.0,79,0.00,,,0.01,WeatherCatV1.15B25,2013-08-16 14:45:00,
2013-08-16 10:50:00,67.1,60.4,30.16,WNW,288,0.0,0.0,79,0.00,,,0.01,WeatherCatV1.15B25,2013-08-16 14:50:00,
2013-08-16 10:55:00,67.3,60.2,30.16,WNW,289,0.0,0.0,78,0.00,,,0.01,WeatherCatV1.15B25,2013-08-16 14:55:00,
2013-08-16 11:00:00,67.6,59.8,30.16,WNW,289,0.0,0.0,76,0.00,,,0.01,WeatherCatV1.15B25,2013-08-16 15:00:00,
2013-08-16 11:05:00,68.0,60.9,30.16,WNW,289,0.0,0.0,78,0.00,,,0.01,WeatherCatV1.15B25,2013-08-16 15:05:00,
2013-08-16 11:10:00,68.3,60.4,30.16,WNW,289,0.0,0.0,76,0.00,,,0.01,WeatherCatV1.15B25,2013-08-16 15:10:00,
2013-08-16 11:15:00,68.7,61.2,30.16,WNW,289,0.0,0.0,77,0.00,,,0.01,WeatherCatV1.15B25,2013-08-16 15:15:00,
2013-08-16 11:20:00,68.9,60.3,30.16,WNW,288,0.0,0.0,74,0.00,,,0.01,WeatherCatV1.15B25,2013-08-16 15:20:00,
2013-08-16 11:25:00,69.3,61.4,30.16,WNW,289,0.0,0.0,76,0.00,,,0.01,WeatherCatV1.15B25,2013-08-16 15:25:00,
2013-08-16 11:30:00,69.7,60.6,30.16,WNW,289,0.0,0.0,73,0.00,,,0.01,WeatherCatV1.15B25,2013-08-16 15:30:00,
2013-08-16 11:35:00,70.0,60.5,30.16,WNW,289,0.0,0.0,72,0.00,,,0.01,WeatherCatV1.15B25,2013-08-16 15:35:00,
2013-08-16 11:40:00,70.2,59.9,30.16,WNW,289,0.0,0.0,70,0.00,,,0.01,WeatherCatV1.15B25,2013-08-16 15:40:00,
2013-08-16 11:45:00,70.4,60.1,30.16,WNW,289,0.0,0.0,70,0.00,,,0.01,WeatherCatV1.15B25,2013-08-16 15:45:00,
2013-08-16 11:50:00,70.8,61.3,30.16,WNW,289,0.0,0.0,72,0.00,,,0.01,WeatherCatV1.15B25,2013-08-16 15:50:00,
2013-08-16 11:55:00,71.1,60.8,30.16,WNW,288,0.0,1.0,70,0.00,,,0.01,WeatherCatV1.15B25,2013-08-16 15:55:00,
2013-08-16 12:00:00,71.3,60.6,30.16,WNW,288,0.0,0.0,69,0.00,,,0.01,WeatherCatV1.15B25,2013-08-16 16:00:00,
2013-08-16 12:05:00,71.4,59.9,30.16,WNW,289,0.0,1.0,67,0.00,,,0.01,WeatherCatV1.15B25,2013-08-16 16:05:00,
2013-08-16 12:10:00,71.3,59.8,30.16,WNW,289,0.0,0.0,67,0.00,,,0.01,WeatherCatV1.15B25,2013-08-16 16:10:00,
2013-08-16 12:15:00,71.3,61.0,30.16,WNW,288,0.0,0.0,70,0.00,,,0.01,WeatherCatV1.15B25,2013-08-16 16:15:00,
2013-08-16 12:20:00,71.3,61.4,30.16,WNW,288,0.0,0.0,71,0.00,,,0.01,WeatherCatV1.15B25,2013-08-16 16:20:00,
2013-08-16 12:25:00,71.3,60.6,30.16,WNW,289,0.0,0.0,69,0.00,,,0.01,WeatherCatV1.15B25,2013-08-16 16:25:00,
2013-08-16 12:30:00,70.8,60.5,30.16,WNW,288,0.0,0.0,70,0.00,,,0.01,WeatherCatV1.15B25,2013-08-16 16:30:00,
2013-08-16 12:35:00,70.1,60.6,30.16,WNW,289,0.0,0.0,72,0.00,,,0.01,WeatherCatV1.15B25,2013-08-16 16:35:00,
2013-08-16 12:40:00,69.5,60.1,30.16,WNW,289,0.0,0.0,72,0.00,,,0.01,WeatherCatV1.15B25,2013-08-16 16:40:00,
2013-08-16 12:45:00,69.3,57.9,30.16,WNW,288,0.0,0.0,67,0.00,,,0.01,WeatherCatV1.15B25,2013-08-16 16:45:00,
2013-08-16 12:50:00,69.6,59.8,30.16,WNW,289,0.0,0.0,71,0.00,,,0.01,WeatherCatV1.15B25,2013-08-16 16:50:00,
2013-08-16 12:55:00,70.1,59.8,30.16,SW,230,0.0,1.0,70,0.00,,,0.01,WeatherCatV1.15B25,2013-08-16 16:55:00,
2013-08-16 13:00:00,70.7,59.2,30.16,SW,230,0.0,0.0,67,0.00,,,0.01,WeatherCatV1.15B25,2013-08-16 17:00:00,
2013-08-16 13:05:00,71.1,57.0,30.16,SW,230,0.0,0.0,61,0.00,,,0.01,WeatherCatV1.15B25,2013-08-16 17:05:00,
2013-08-16 13:10:00,71.3,57.1,30.16,SW,230,0.0,0.0,61,0.00,,,0.01,WeatherCatV1.15B25,2013-08-16 17:10:00,
2013-08-16 13:15:00,71.4,57.2,30.16,SW,230,0.0,0.0,61,0.00,,,0.01,WeatherCatV1.15B25,2013-08-16 17:15:00,
2013-08-16 13:20:00,71.6,58.8,30.16,SW,230,0.0,0.0,64,0.00,,,0.01,WeatherCatV1.15B25,2013-08-16 17:20:00,
2013-08-16 13:25:00,71.7,58.9,30.16,SW,230,0.0,0.0,64,0.00,,,0.01,WeatherCatV1.15B25,2013-08-16 17:25:00,
2013-08-16 13:30:00,71.8,57.2,30.16,SW,230,0.0,0.0,60,0.00,,,0.01,WeatherCatV1.15B25,2013-08-16 17:30:00,
2013-08-16 13:35:00,72.0,56.4,30.16,SW,229,0.0,0.0,58,0.00,,,0.01,WeatherCatV1.15B25,2013-08-16 17:35:00,
2013-08-16 13:40:00,72.1,56.5,30.16,SW,230,0.0,0.0,58,0.00,,,0.01,WeatherCatV1.15B25,2013-08-16 17:40:00,
2013-08-16 13:45:00,72.1,54.0,30.16,SW,230,0.0,0.0,53,0.00,,,0.01,WeatherCatV1.15B25,2013-08-16 17:45:00,
2013-08-16 13:50:00,71.5,55.9,30.16,SW,230,0.0,0.0,58,0.00,,,0.02,WeatherCatV1.15B25,2013-08-16 17:50:00,
2013-08-16 13:55:00,71.3,58.0,30.16,SW,230,0.0,0.0,63,0.00,,,0.02,WeatherCatV1.15B25,2013-08-16 17:55:00,
2013-08-16 14:00:00,71.4,55.8,30.16,SW,230,0.0,1.0,58,0.00,,,0.02,WeatherCatV1.15B25,2013-08-16 18:00:00,
2013-08-16 14:05:00,71.6,57.0,30.16,SW,230,2.0,2.0,60,0.00,,,0.02,WeatherCatV1.15B25,2013-08-16 18:05:00,
2013-08-16 14:10:00,71.6,56.0,30.16,SW,230,0.0,1.0,58,0.00,,,0.02,WeatherCatV1.15B25,2013-08-16 18:10:00,
2013-08-16 14:15:00,71.7,58.4,30.16,SW,230,1.0,1.0,63,0.00,,,0.02,WeatherCatV1.15B25,2013-08-16 18:15:00,
2013-08-16 14:20:00,71.9,56.8,30.15,SW,230,0.0,0.0,59,0.00,,,0.02,WeatherCatV1.15B25,2013-08-16 18:20:00,
2013-08-16 14:25:00,72.2,58.4,30.15,SW,230,0.0,0.0,62,0.00,,,0.02,WeatherCatV1.15B25,2013-08-16 18:25:00,
2013-08-16 14:30:00,72.4,57.2,30.15,SW,230,0.0,1.0,59,0.00,,,0.02,WeatherCatV1.15B25,2013-08-16 18:30:00,
2013-08-16 14:35:00,72.4,56.8,30.15,SW,230,0.0,0.0,58,0.00,,,0.02,WeatherCatV1.15B25,2013-08-16 18:35:00,
2013-08-16 14:40:00,72.4,56.3,30.15,SW,230,0.0,1.0,57,0.00,,,0.02,WeatherCatV1.15B25,2013-08-16 18:40:00,
2013-08-16 14:45:00,72.6,58.4,30.15,SW,230,0.0,0.0,61,0.00,,,0.02,WeatherCatV1.15B25,2013-08-16 18:45:00,
2013-08-16 14:50:00,72.7,58.0,30.15,SW,230,0.0,1.0,60,0.00,,,0.02,WeatherCatV1.15B25,2013-08-16 18:50:00,
2013-08-16 14:55:00,72.8,59.5,30.15,SW,230,0.0,0.0,63,0.00,,,0.02,WeatherCatV1.15B25,2013-08-16 18:55:00,
2013-08-16 15:00:00,72.8,58.1,30.15,SW,230,0.0,0.0,60,0.00,,,0.02,WeatherCatV1.15B25,2013-08-16 19:00:00,
2013-08-16 15:05:00,72.8,58.6,30.15,SW,230,0.0,0.0,61,0.00,,,0.02,WeatherCatV1.15B25,2013-08-16 19:05:00,
2013-08-16 15:10:00,72.6,57.0,30.14,SW,230,0.0,0.0,58,0.00,,,0.02,WeatherCatV1.15B25,2013-08-16 19:10:00,
2013-08-16 15:15:00,72.6,57.9,30.14,SW,230,0.0,0.0,60,0.00,,,0.02,WeatherCatV1.15B25,2013-08-16 19:15:00,
2013-08-16 15:20:00,72.9,58.6,30.14,SW,230,0.0,0.0,61,0.00,,,0.02,WeatherCatV1.15B25,2013-08-16 19:20:00,
2013-08-16 15:25:00,73.1,59.3,30.14,SW,230,0.0,1.0,62,0.00,,,0.02,WeatherCatV1.15B25,2013-08-16 19:25:00,
2013-08-16 15:30:00,73.1,57.4,30.14,SW,230,0.0,0.0,58,0.00,,,0.02,WeatherCatV1.15B25,2013-08-16 19:30:00,
2013-08-16 15:35:00,72.8,60.3,30.14,SW,230,0.0,0.0,65,0.00,,,0.02,WeatherCatV1.15B25,2013-08-16 19:35:00,
2013-08-16 15:40:00,72.3,58.1,30.14,South,187,0.0,0.0,61,0.00,,,0.02,WeatherCatV1.15B25,2013-08-16 19:40:00,
2013-08-16 15:45:00,72.3,58.1,30.14,South,187,0.0,0.0,61,0.00,,,0.02,WeatherCatV1.15B25,2013-08-16 19:45:00,
2013-08-16 15:50:00,72.4,59.1,30.14,South,187,0.0,0.0,63,0.00,,,0.02,WeatherCatV1.15B25,2013-08-16 19:50:00,
2013-08-16 15:55:00,72.4,58.2,30.14,South,187,0.0,0.0,61,0.00,,,0.02,WeatherCatV1.15B25,2013-08-16 19:55:00,
2013-08-16 16:00:00,72.4,58.6,30.14,South,187,0.0,0.0,62,0.00,,,0.02,WeatherCatV1.15B25,2013-08-16 20:00:00,
2013-08-16 16:05:00,72.3,57.6,30.14,South,187,0.0,0.0,60,0.00,,,0.02,WeatherCatV1.15B25,2013-08-16 20:05:00,
2013-08-16 16:10:00,72.2,60.2,30.14,South,187,0.0,0.0,66,0.00,,,0.02,WeatherCatV1.15B25,2013-08-16 20:10:00,
2013-08-16 16:15:00,72.2,60.2,30.14,South,187,0.0,0.0,66,0.00,,,0.02,WeatherCatV1.15B25,2013-08-16 20:15:00,
2013-08-16 16:20:00,72.3,60.7,30.14,South,187,0.0,0.0,67,0.00,,,0.02,WeatherCatV1.15B25,2013-08-16 20:20:00,
2013-08-16 16:25:00,72.2,60.2,30.15,SSW,200,0.0,0.0,66,0.00,,,0.02,WeatherCatV1.15B25,2013-08-16 20:25:00,
2013-08-16 16:30:00,72.2,58.4,30.15,SSW,200,0.0,0.0,62,0.00,,,0.02,WeatherCatV1.15B25,2013-08-16 20:30:00,
2013-08-16 16:35:00,72.4,60.8,30.15,SSW,199,0.0,0.0,67,0.00,,,0.02,WeatherCatV1.15B25,2013-08-16 20:35:00,
2013-08-16 16:40:00,72.4,61.2,30.15,SSW,199,0.0,0.0,68,0.00,,,0.02,WeatherCatV1.15B25,2013-08-16 20:40:00,
2013-08-16 16:45:00,72.3,59.0,30.15,SSW,199,0.0,0.0,63,0.00,,,0.02,WeatherCatV1.15B25,2013-08-16 20:45:00,
2013-08-16 16:50:00,72.1,58.8,30.15,SSW,200,0.0,0.0,63,0.00,,,0.02,WeatherCatV1.15B25,2013-08-16 20:50:00,
2013-08-16 16:55:00,71.3,58.9,30.14,SSW,199,0.0,0.0,65,0.00,,,0.02,WeatherCatV1.15B25,2013-08-16 20:55:00,
2013-08-16 17:00:00,70.8,58.9,30.15,SSW,199,0.0,0.0,66,0.00,,,0.02,WeatherCatV1.15B25,2013-08-16 21:00:00,
2013-08-16 17:05:00,70.7,59.6,30.15,SSW,200,0.0,0.0,68,0.00,,,0.02,WeatherCatV1.15B25,2013-08-16 21:05:00,
2013-08-16 17:10:00,70.5,59.0,30.15,SSW,200,0.0,0.0,67,0.00,,,0.02,WeatherCatV1.15B25,2013-08-16 21:10:00,
2013-08-16 17:15:00,70.3,58.8,30.15,WSW,248,0.0,0.0,67,0.00,,,0.02,WeatherCatV1.15B25,2013-08-16 21:15:00,
2013-08-16 17:20:00,70.1,59.4,30.15,WSW,248,0.0,1.0,69,0.00,,,0.02,WeatherCatV1.15B25,2013-08-16 21:20:00,
2013-08-16 17:25:00,70.1,60.6,30.15,WSW,248,0.0,0.0,72,0.00,,,0.02,WeatherCatV1.15B25,2013-08-16 21:25:00,
2013-08-16 17:30:00,70.0,60.5,30.15,WSW,248,0.0,0.0,72,0.00,,,0.02,WeatherCatV1.15B25,2013-08-16 21:30:00,
2013-08-16 17:35:00,70.0,60.5,30.14,WSW,248,0.0,0.0,72,0.00,,,0.02,WeatherCatV1.15B25,2013-08-16 21:35:00,
2013-08-16 17:40:00,69.9,60.5,30.15,WSW,248,0.0,0.0,72,0.00,,,0.02,WeatherCatV1.15B25,2013-08-16 21:40:00,
2013-08-16 17:45:00,69.7,59.9,30.15,WSW,248,0.0,0.0,71,0.00,,,0.02,WeatherCatV1.15B25,2013-08-16 21:45:00,
2013-08-16 17:50:00,69.5,58.9,30.15,WSW,248,0.0,0.0,69,0.00,,,0.02,WeatherCatV1.15B25,2013-08-16 21:50:00,
2013-08-16 17:55:00,69.4,58.8,30.15,WSW,248,0.0,0.0,69,0.00,,,0.02,WeatherCatV1.15B25,2013-08-16 21:55:00,
2013-08-16 18:00:00,69.2,58.2,30.16,WSW,248,0.0,0.0,68,0.00,,,0.02,WeatherCatV1.15B25,2013-08-16 22:00:00,
2013-08-16 18:05:00,69.2,59.0,30.15,WSW,248,0.0,0.0,70,0.00,,,0.02,WeatherCatV1.15B25,2013-08-16 22:05:00,
2013-08-16 18:10:00,69.0,58.4,30.15,WSW,248,0.0,0.0,69,0.00,,,0.02,WeatherCatV1.15B25,2013-08-16 22:10:00,
2013-08-16 18:15:00,68.8,58.2,30.15,WSW,248,0.0,0.0,69,0.00,,,0.02,WeatherCatV1.15B25,2013-08-16 22:15:00,
2013-08-16 18:20:00,68.7,58.1,30.15,WSW,248,0.0,0.0,69,0.00,,,0.02,WeatherCatV1.15B25,2013-08-16 22:20:00,
2013-08-16 18:25:00,68.6,58.0,30.15,WSW,248,0.0,0.0,69,0.00,,,0.02,WeatherCatV1.15B25,2013-08-16 22:25:00,
2013-08-16 18:30:00,68.5,57.9,30.15,WSW,248,0.0,0.0,69,0.00,,,0.02,WeatherCatV1.15B25,2013-08-16 22:30:00,
2013-08-16 18:35:00,68.4,57.4,30.15,WSW,248,0.0,0.0,68,0.00,,,0.02,WeatherCatV1.15B25,2013-08-16 22:35:00,
2013-08-16 18:40:00,68.3,58.1,30.15,WSW,248,0.0,0.0,70,0.00,,,0.02,WeatherCatV1.15B25,2013-08-16 22:40:00,
2013-08-16 18:45:00,68.1,57.5,30.15,WSW,248,0.0,0.0,69,0.00,,,0.02,WeatherCatV1.15B25,2013-08-16 22:45:00,
2013-08-16 18:50:00,68.0,57.4,30.15,WSW,248,0.0,0.0,69,0.00,,,0.02,WeatherCatV1.15B25,2013-08-16 22:50:00,
2013-08-16 18:55:00,67.9,57.7,30.15,WSW,248,0.0,0.0,70,0.00,,,0.02,WeatherCatV1.15B25,2013-08-16 22:55:00,
2013-08-16 19:00:00,67.7,57.9,30.15,WSW,248,0.0,0.0,71,0.00,,,0.02,WeatherCatV1.15B25,2013-08-16 23:00:00,
2013-08-16 19:05:00,67.6,57.9,30.15,WSW,248,0.0,0.0,71,0.00,,,0.02,WeatherCatV1.15B25,2013-08-16 23:05:00,
2013-08-16 19:10:00,67.5,58.1,30.15,WSW,248,0.0,0.0,72,0.00,,,0.02,WeatherCatV1.15B25,2013-08-16 23:10:00,
2013-08-16 19:15:00,67.3,57.2,30.15,WSW,248,0.0,0.0,70,0.00,,,0.02,WeatherCatV1.15B25,2013-08-16 23:15:00,
2013-08-16 19:20:00,67.2,57.1,30.16,WSW,248,0.0,0.0,70,0.00,,,0.02,WeatherCatV1.15B25,2013-08-16 23:20:00,
2013-08-16 19:25:00,67.0,56.9,30.16,WSW,248,0.0,0.0,70,0.00,,,0.02,WeatherCatV1.15B25,2013-08-16 23:25:00,
2013-08-16 19:30:00,66.8,57.1,30.16,WSW,248,0.0,0.0,71,0.00,,,0.02,WeatherCatV1.15B25,2013-08-16 23:30:00,
2013-08-16 19:35:00,66.6,56.9,30.16,WSW,248,0.0,0.0,71,0.00,,,0.02,WeatherCatV1.15B25,2013-08-16 23:35:00,
2013-08-16 19:40:00,66.5,56.4,30.16,WSW,248,0.0,0.0,70,0.00,,,0.02,WeatherCatV1.15B25,2013-08-16 23:40:00,
2013-08-16 19:45:00,66.3,55.8,30.16,WSW,248,0.0,0.0,69,0.00,,,0.02,WeatherCatV1.15B25,2013-08-16 23:45:00,
2013-08-16 19:50:00,66.1,55.6,30.16,WSW,248,0.0,0.0,69,0.00,,,0.02,WeatherCatV1.15B25,2013-08-16 23:50:00,
2013-08-16 19:55:00,66.0,55.5,30.17,WSW,248,0.0,0.0,69,0.00,,,0.02,WeatherCatV1.15B25,2013-08-16 23:55:00,
2013-08-16 20:00:00,65.8,55.7,30.17,WSW,248,0.0,0.0,70,0.00,,,0.02,WeatherCatV1.15B25,2013-08-17 00:00:00,
2013-08-16 20:05:00,65.8,55.7,30.17,WSW,248,0.0,0.0,70,0.00,,,0.02,WeatherCatV1.15B25,2013-08-17 00:05:00,
2013-08-16 20:10:00,65.7,55.6,30.17,WSW,248,0.0,0.0,70,0.00,,,0.02,WeatherCatV1.15B25,2013-08-17 00:10:00,
2013-08-16 20:15:00,65.6,55.1,30.17,WSW,248,0.0,0.0,69,0.00,,,0.02,WeatherCatV1.15B25,2013-08-17 00:15:00,
2013-08-16 20:20:00,65.5,55.1,30.17,WSW,248,0.0,0.0,69,0.00,,,0.02,WeatherCatV1.15B25,2013-08-17 00:20:00,
2013-08-16 20:25:00,65.4,55.4,30.17,WSW,248,0.0,0.0,70,0.00,,,0.02,WeatherCatV1.15B25,2013-08-17 00:25:00,
2013-08-16 20:30:00,65.4,55.4,30.17,WSW,248,0.0,0.0,70,0.00,,,0.02,WeatherCatV1.15B25,2013-08-17 00:30:00,
2013-08-16 20:35:00,65.3,55.3,30.17,WSW,248,0.0,0.0,70,0.00,,,0.02,WeatherCatV1.15B25,2013-08-17 00:35:00,
2013-08-16 20:40:00,65.3,55.6,30.17,WSW,248,0.0,0.0,71,0.00,,,0.02,WeatherCatV1.15B25,2013-08-17 00:40:00,
2013-08-16 20:45:00,65.3,56.0,30.17,WSW,248,0.0,0.0,72,0.00,,,0.02,WeatherCatV1.15B25,2013-08-17 00:45:00,
2013-08-16 20:50:00,65.4,56.1,30.17,WSW,248,0.0,0.0,72,0.00,,,0.02,WeatherCatV1.15B25,2013-08-17 00:50:00,
2013-08-16 20:55:00,65.4,56.1,30.17,WSW,248,0.0,0.0,72,0.00,,,0.02,WeatherCatV1.15B25,2013-08-17 00:55:00,
2013-08-16 21:00:00,65.3,56.0,30.18,WSW,248,0.0,0.0,72,0.00,,,0.02,WeatherCatV1.15B25,2013-08-17 01:00:00,
2013-08-16 21:05:00,65.3,55.6,30.18,WSW,248,0.0,0.0,71,0.00,,,0.02,WeatherCatV1.15B25,2013-08-17 01:05:00,
2013-08-16 21:10:00,65.3,55.6,30.17,WSW,248,0.0,1.0,71,0.00,,,0.02,WeatherCatV1.15B25,2013-08-17 01:10:00,
2013-08-16 21:15:00,65.2,55.6,30.17,WSW,248,0.0,0.0,71,0.00,,,0.02,WeatherCatV1.15B25,2013-08-17 01:15:00,
2013-08-16 21:20:00,65.2,55.6,30.18,WSW,248,0.0,0.0,71,0.00,,,0.02,WeatherCatV1.15B25,2013-08-17 01:20:00,
2013-08-16 21:25:00,65.2,55.6,30.18,WSW,248,0.0,0.0,71,0.00,,,0.02,WeatherCatV1.15B25,2013-08-17 01:25:00,
2013-08-16 21:30:00,65.1,55.1,30.18,WSW,248,0.0,0.0,70,0.00,,,0.03,WeatherCatV1.15B25,2013-08-17 01:30:00,
2013-08-16 21:35:00,65.1,55.5,30.18,WSW,248,0.0,0.0,71,0.00,,,0.03,WeatherCatV1.15B25,2013-08-17 01:35:00,
2013-08-16 21:40:00,65.1,55.5,30.18,WSW,248,0.0,0.0,71,0.00,,,0.03,WeatherCatV1.15B25,2013-08-17 01:40:00,
2013-08-16 21:45:00,65.0,55.0,30.18,WSW,248,0.0,0.0,70,0.00,,,0.03,WeatherCatV1.15B25,2013-08-17 01:45:00,
2013-08-16 21:51:00,65.0,55.4,30.18,WSW,248,0.0,0.0,71,0.00,,,0.03,WeatherCatV1.15B25,2013-08-17 01:51:00,
2013-08-16 21:56:00,65.1,57.0,30.18,WSW,248,0.0,0.0,75,0.00,,,0.03,WeatherCatV1.15B25,2013-08-17 01:56:00,
2013-08-16 22:00:00,65.0,56.9,30.18,WSW,248,0.0,0.0,75,0.00,,,0.03,WeatherCatV1.15B25,2013-08-17 02:00:00,
2013-08-16 22:05:00,64.7,56.2,30.18,WSW,248,0.0,0.0,74,0.00,,,0.03,WeatherCatV1.15B25,2013-08-17 02:05:00,
2013-08-16 22:10:00,64.4,56.7,30.18,WSW,248,0.0,0.0,76,0.00,,,0.03,WeatherCatV1.15B25,2013-08-17 02:10:00,
2013-08-16 22:15:00,64.1,56.7,30.18,WSW,248,0.0,0.0,77,0.00,,,0.03,WeatherCatV1.15B25,2013-08-17 02:15:00,
2013-08-16 22:20:00,64.0,56.6,30.18,WSW,248,0.0,0.0,77,0.00,,,0.03,WeatherCatV1.15B25,2013-08-17 02:20:00,
2013-08-16 22:26:00,63.8,56.4,30.18,WSW,248,0.0,0.0,77,0.00,,,0.03,WeatherCatV1.15B25,2013-08-17 02:26:00,
2013-08-16 22:31:00,63.5,56.5,30.18,WSW,248,0.0,0.0,78,0.00,,,0.03,WeatherCatV1.15B25,2013-08-17 02:31:00,
2013-08-16 22:36:00,63.3,56.3,30.18,WSW,242,0.0,0.0,78,0.00,,,0.03,WeatherCatV1.15B25,2013-08-17 02:36:00,
2013-08-16 22:40:00,63.1,56.5,30.19,WSW,242,0.0,0.0,79,0.00,,,0.03,WeatherCatV1.15B25,2013-08-17 02:40:00,
2013-08-16 22:45:00,63.0,56.4,30.19,SSW,213,0.0,1.0,79,0.00,,,0.03,WeatherCatV1.15B25,2013-08-17 02:45:00,
2013-08-16 22:50:00,62.9,56.3,30.18,SSW,213,0.0,0.0,79,0.00,,,0.03,WeatherCatV1.15B25,2013-08-17 02:50:00,
2013-08-16 22:55:00,62.8,56.2,30.19,SSW,213,0.0,0.0,79,0.00,,,0.03,WeatherCatV1.15B25,2013-08-17 02:55:00,
2013-08-16 23:01:00,62.7,56.1,30.19,SSW,213,0.0,0.0,79,0.00,,,0.03,WeatherCatV1.15B25,2013-08-17 03:01:00,
2013-08-16 23:06:00,62.6,56.0,30.19,SW,214,0.0,1.0,79,0.00,,,0.03,WeatherCatV1.15B25,2013-08-17 03:06:00,
2013-08-16 23:11:00,62.6,56.3,30.19,West,265,0.0,1.0,80,0.00,,,0.03,WeatherCatV1.15B25,2013-08-17 03:11:00,
2013-08-16 23:16:00,62.5,56.2,30.19,West,259,0.0,0.0,80,0.00,,,0.03,WeatherCatV1.15B25,2013-08-17 03:16:00,
2013-08-16 23:21:00,62.5,56.2,30.19,SW,234,0.0,1.0,80,0.00,,,0.03,WeatherCatV1.15B25,2013-08-17 03:21:00,
2013-08-16 23:26:00,62.4,56.1,30.19,West,265,0.0,0.0,80,0.00,,,0.03,WeatherCatV1.15B25,2013-08-17 03:26:00,
2013-08-16 23:31:00,62.2,56.3,30.19,West,265,0.0,0.0,81,0.00,,,0.03,WeatherCatV1.15B25,2013-08-17 03:31:00,
2013-08-16 23:36:00,62.1,55.9,30.19,West,265,0.0,0.0,80,0.00,,,0.03,WeatherCatV1.15B25,2013-08-17 03:36:00,
2013-08-16 23:41:00,62.0,55.8,30.19,West,265,0.0,0.0,80,0.00,,,0.03,WeatherCatV1.15B25,2013-08-17 03:41:00,
2013-08-16 23:46:00,61.9,55.7,30.19,West,265,0.0,0.0,80,0.00,,,0.03,WeatherCatV1.15B25,2013-08-17 03:46:00,
2013-08-16 23:51:00,61.8,55.2,30.19,WSW,246,0.0,0.0,79,0.00,,,0.03,WeatherCatV1.15B25,2013-08-17 03:51:00,
2013-08-16 23:56:00,61.8,54.9,30.19,NNW,329,0.0,0.0,78,0.00,,,0.03,WeatherCatV1.15B25,2013-08-17 03:56:00,